QPF
0.00 0.00 0.00 0.00 0.00 0.00 0.00 0.00 0.00 0.01 0.02 0.02 0.02 0.02 0.01 0.01 0.01 0.01 0.02 0.02 0.03 0.02 0.02 0.02 0.02 0.01 0.01 0.01 0.00 0.00 0.00 0.00 0.00 0.01 0.01 0.01 0.01 0.01 0.01 0.01 0.00 0.00 0.00 0.00
0.00 0.00 0.00 0.00 0.00 0.00 0.00 0.01 0.01 0.02 0.03 0.04 0.03 0.03 0.03 0.03 0.02 0.02 0.02 0.02 0.01 0.01 0.01 0.01 0.01 0.00 0.00 0.00 0.01 0.01 0.01 0.02 0.02 0.02 0.02 0.02 0.01 0.01 0.01 0.00 0.00 0.00 0.00 0.00
0.01 0.01 0.01 0.02 0.01 0.01 0.01 0.02 0.03 0.04 0.03 0.05 0.06 0.06 0.08 0.07 0.06 0.04 0.03 0.02 0.01 0.00 0.00 0.00 0.00 0.00 0.01 0.02 0.02 0.02 0.03 0.03 0.04 0.04 0.05 0.04 0.02 0.01 0.00 0.00 0.00 0.00 0.00 0.00
0.00 0.01 0.02 0.02 0.01 0.02 0.02 0.04 0.07 0.07 0.07 0.07 0.08 0.08 0.06 0.05 0.04 0.03 0.01 0.01 0.00 0.00 0.00 0.00 0.01 0.01 0.02 0.03 0.04 0.06 0.07 0.07 0.07 0.07 0.05 0.02 0.01 0.00 0.00 0.00 0.00 0.00 0.00 0.00
0.00 0.00 0.01 0.01 0.00 0.01 0.02 0.03 0.04 0.05 0.06 0.07 0.06 0.05 0.03 0.02 0.01 0.01 0.00 0.00 0.00 0.00 0.00 0.01 0.01 0.03 0.04 0.06 0.08 0.09 0.09 0.07 0.05 0.04 0.02 0.00 0.00 0.00 0.00 0.00 0.00 0.00 0.00 0.00
0.01 0.01 0.01 0.01 0.00 0.01 0.01 0.01 0.02 0.02 0.02 0.02 0.02 0.02 0.01 0.01 0.00 0.00 0.00 0.00 0.00 0.00 0.00 0.01 0.02 0.03 0.05 0.06 0.06 0.05 0.03 0.02 0.01 0.01 0.00 0.00 0.00 0.00 0.00 0.00 0.00 0.00 0.00 0.00
0.01 0.01 0.01 0.01 0.01 0.01 0.01 0.01 0.02 0.02 0.01 0.01 0.00 0.00 0.00 0.00 0.00 0.00 0.00 0.00 0.00 0.00 0.01 0.01 0.02 0.02 0.02 0.03 0.02 0.01 0.00 0.00 0.00 0.00 0.00 0.00 0.00 0.00 0.00 0.00 0.00 0.00 0.00 0.00
0.01 0.01 0.01 0.01 0.01 0.01 0.01 0.02 0.03 0.02 0.01 0.00 0.00 0.00 0.00 0.00 0.00 0.00 0.00 0.00 0.00 0.01 0.01 0.01 0.01 0.01 0.01 0.01 0.01 0.00 0.00 0.00 0.00 0.00 0.00 0.00 0.00 0.00 0.00 0.00 0.00 0.00 0.00 0.00
0.01 0.01 0.01 0.01 0.01 0.02 0.02 0.02 0.02 0.01 0.00 0.00 0.00 0.00 0.00 0.00 0.00 0.00 0.00 0.01 0.01 0.01 0.01 0.01 0.01 0.00 0.00 0.00 0.00 0.00 0.00 0.00 0.00 0.00 0.00 0.00 0.00 0.00 0.00 0.00 0.00 0.00 0.00 0.00
0.00 0.01 0.01 0.01 0.02 0.02 0.02 0.02 0.01 0.00 0.00 0.00 0.00 0.00 0.00 0.00 0.00 0.00 0.01 0.01 0.01 0.01 0.00 0.00 0.00 0.00 0.00 0.00 0.00 0.00 0.00 0.00 0.00 0.00 0.00 0.00 0.00 0.00 0.00 0.00 0.00 0.00 0.00 0.00
0.00 0.00 0.01 0.01 0.00 0.00 0.01 0.01 0.01 0.00 0.00 0.00 0.00 0.00 0.00 0.00 0.00 0.00 0.01 0.01 0.01 0.00 0.00 0.00 0.00 0.00 0.00 0.00 0.00 0.00 0.00 0.00 0.00 0.00 0.00 0.00 0.00 0.00 0.00 0.00 0.00 0.00 0.00 0.00
0.00 0.00 0.00 0.00 0.00 0.00 0.01 0.01 0.01 0.01 0.00 0.00 0.00 0.00 0.00 0.01 0.01 0.01 0.01 0.01 0.00 0.00 0.00 0.00 0.00 0.00 0.00 0.00 0.00 0.00 0.00 0.00 0.00 0.00 0.00 0.00 0.00 0.00 0.00 0.00 0.00 0.00 0.00 0.00
0.00 0.00 0.00 0.00 0.00 0.01 0.01 0.01 0.01 0.01 0.01 0.01 0.01 0.01 0.02 0.02 0.01 0.01 0.01 0.00 0.00 0.00 0.00 0.00 0.00 0.00 0.00 0.00 0.00 0.00 0.00 0.00 0.00 0.00 0.00 0.00 0.00 0.00 0.00 0.00 0.00 0.00 0.00 0.00
0.00 0.00 0.00 0.00 0.01 0.01 0.02 0.02 0.02 0.02 0.02 0.01 0.01 0.01 0.02 0.01 0.01 0.01 0.00 0.00 0.00 0.00 0.00 0.00 0.00 0.00 0.00 0.00 0.00 0.00 0.00 0.00 0.00 0.00 0.00 0.00 0.00 0.00 0.00 0.00 0.00 0.00 0.00 0.00
0.00 0.00 0.00 0.01 0.02 0.03 0.03 0.03 0.03 0.02 0.02 0.02 0.01 0.01 0.01 0.01 0.00 0.00 0.00 0.00 0.00 0.00 0.00 0.00 0.00 0.00 0.00 0.00 0.00 0.00 0.00 0.00 0.00 0.00 0.00 0.00 0.00 0.00 0.00 0.00 0.00 0.00 0.00 0.00
0.00 0.00 0.01 0.02 0.03 0.04 0.04 0.03 0.02 0.02 0.01 0.01 0.01 0.01 0.00 0.00 0.00 0.00 0.00 0.00 0.00 0.00 0.00 0.00 0.00 0.00 0.00 0.00 0.00 0.00 0.00 0.00 0.00 0.00 0.00 0.00 0.00 0.00 0.00 0.00 0.00 0.00 0.00 0.00
0.00 0.00 0.01 0.01 0.02 0.02 0.02 0.01 0.01 0.01 0.00 0.00 0.00 0.00 0.00 0.00 0.00 0.00 0.00 0.00 0.00 0.00 0.00 0.00 0.00 0.00 0.00 0.00 0.00 0.00 0.00 0.00 0.00 0.00 0.00 0.00 0.00 0.00 0.00 0.00 0.00 0.00 0.00 0.01
0.00 0.00 0.00 0.00 0.00 0.00 0.00 0.00 0.00 0.00 0.00 0.00 0.00 0.00 0.00 0.00 0.00 0.00 0.00 0.00 0.00 0.00 0.00 0.00 0.00 0.00 0.00 0.00 0.00 0.00 0.00 0.00 0.00 0.00 0.00 0.00 0.00 0.00 0.00 0.00 0.00 0.00 0.00 0.01
0.00 0.00 0.00 0.00 0.00 0.00 0.00 0.00 0.00 0.00 0.00 0.00 0.00 0.00 0.00 0.00 0.00 0.00 0.00 0.00 0.00 0.00 0.00 0.00 0.00 0.00 0.00 0.00 0.00 0.00 0.00 0.00 0.00 0.00 0.00 0.00 0.00 0.00 0.00 0.00 0.00 0.00 0.00 0.00
0.00 0.00 0.00 0.00 0.00 0.00 0.00 0.00 0.00 0.00 0.00 0.00 0.00 0.00 0.00 0.00 0.00 0.00 0.00 0.00 0.00 0.00 0.00 0.00 0.00 0.00 0.00 0.00 0.00 0.00 0.00 0.00 0.00 0.00 0.00 0.00 0.00 0.00 0.00 0.00 0.00 0.00 0.00 0.00
0.00 0.00 0.00 0.00 0.00 0.00 0.00 0.00 0.00 0.00 0.00 0.00 0.00 0.00 0.00 0.00 0.00 0.00 0.00 0.00 0.00 0.00 0.00 0.00 0.00 0.00 0.00 0.00 0.00 0.00 0.00 0.00 0.00 0.00 0.00 0.00 0.00 0.00 0.00 0.00 0.00 0.00 0.00 0.00
0.00 0.00 0.00 0.00 0.00 0.00 0.00 0.00 0.00 0.00 0.00 0.00 0.00 0.00 0.00 0.00 0.00 0.00 0.00 0.00 0.00 0.00 0.00 0.00 0.00 0.00 0.00 0.00 0.00 0.00 0.00 0.00 0.00 0.00 0.00 0.00 0.00 0.00 0.00 0.00 0.00 0.00 0.00 0.00
0.00 0.00 0.00 0.00 0.00 0.00 0.00 0.00 0.00 0.00 0.00 0.00 0.00 0.00 0.00 0.00 0.00 0.00 0.00 0.00 0.00 0.00 0.00 0.00 0.00 0.00 0.00 0.00 0.00 0.00 0.00 0.00 0.00 0.00 0.00 0.00 0.00 0.00 0.00 0.00 0.00 0.00 0.00 0.00
0.00 0.00 0.00 0.00 0.00 0.00 0.00 0.00 0.00 0.00 0.00 0.00 0.00 0.00 0.00 0.00 0.00 0.00 0.00 0.00 0.00 0.00 0.00 0.00 0.00 0.00 0.00 0.00 0.00 0.00 0.00 0.00 0.00 0.00 0.00 0.00 0.00 0.00 0.00 0.00 0.00 0.00 0.00 0.00
0.00 0.00 0.00 0.00 0.00 0.00 0.00 0.00 0.00 0.00 0.00 0.00 0.00 0.00 0.00 0.00 0.00 0.00 0.00 0.00 0.00 0.00 0.00 0.00 0.00 0.00 0.00 0.00 0.00 0.00 0.00 0.00 0.00 0.00 0.00 0.00 0.00 0.00 0.00 0.00 0.00 0.00 0.00 0.00
0.00 0.00 0.00 0.00 0.00 0.00 0.00 0.00 0.00 0.00 0.00 0.00 0.00 0.00 0.00 0.00 0.00 0.00 0.00 0.00 0.00 0.00 0.00 0.00 0.00 0.00 0.00 0.00 0.00 0.00 0.00 0.00 0.00 0.00 0.00 0.00 0.00 0.00 0.00 0.00 0.00 0.00 0.00 0.00
0.00 0.00 0.00 0.00 0.00 0.00 0.00 0.00 0.00 0.00 0.00 0.00 0.00 0.00 0.00 0.00 0.00 0.00 0.00 0.00 0.00 0.00 0.00 0.00 0.00 0.00 0.00 0.00 0.00 0.00 0.00 0.00 0.00 0.00 0.00 0.00 0.00 0.00 0.00 0.00 0.00 0.00 0.00 0.00
MSLP
1012.05 1012.10 1012.25 1012.45 1012.67 1012.87 1013.02 1013.10 1013.12 1013.10 1013.07 1013.08 1013.18 1013.40 1013.73 1014.18 1014.71 1015.27 1015.82 1016.30 1016.70 1016.99 1017.19 1017.33 1017.45 1017.59 1017.78 1018.04 1018.38 1018.79 1019.24 1019.71 1020.18 1020.62 1021.02 1021.39 1021.73 1022.04 1022.34 1022.63 1022.90 1023.14 1023.35 1023.50
1012.92 1012.94 1012.99 1013.05 1013.11 1013.14 1013.13 1013.10 1013.05 1013.03 1013.06 1013.19 1013.44 1013.82 1014.32 1014.91 1015.55 1016.18 1016.75 1017.24 1017.61 1017.87 1018.04 1018.15 1018.24 1018.36 1018.54 1018.80 1019.14 1019.54 1019.98 1020.45 1020.90 1021.34 1021.73 1022.09 1022.42 1022.72 1023.00 1023.25 1023.49 1023.68 1023.83 1023.92
1013.76 1013.74 1013.70 1013.65 1013.58 1013.47 1013.35 1013.24 1013.17 1013.17 1013.28 1013.52 1013.90 1014.43 1015.06 1015.75 1016.46 1017.13 1017.72 1018.18 1018.52 1018.73 1018.86 1018.93 1019.00 1019.10 1019.27 1019.52 1019.84 1020.23 1020.66 1021.10 1021.54 1021.95 1022.33 1022.68 1022.99 1023.28 1023.54 1023.78 1023.98 1024.14 1024.25 1024.29
1014.53 1014.44 1014.33 1014.18 1014.01 1013.82 1013.64 1013.49 1013.43 1013.48 1013.67 1014.02 1014.53 1015.16 1015.89 1016.66 1017.41 1018.09 1018.66 1019.09 1019.38 1019.55 1019.63 1019.67 1019.72 1019.80 1019.95 1020.18 1020.49 1020.86 1021.26 1021.68 1022.08 1022.47 1022.83 1023.15 1023.45 1023.72 1023.97 1024.19 1024.38 1024.51 1024.58 1024.59
1015.18 1015.02 1014.83 1014.62 1014.38 1014.14 1013.94 1013.80 1013.78 1013.90 1014.18 1014.63 1015.23 1015.95 1016.75 1017.55 1018.31 1018.98 1019.51 1019.90 1020.15 1020.28 1020.33 1020.35 1020.38 1020.45 1020.59 1020.81 1021.09 1021.43 1021.80 1022.19 1022.56 1022.91 1023.24 1023.54 1023.82 1024.08 1024.31 1024.52 1024.69 1024.80 1024.85 1024.82
1015.70 1015.47 1015.21 1014.94 1014.66 1014.42 1014.23 1014.14 1014.18 1014.38 1014.75 1015.28 1015.96 1016.73 1017.56 1018.37 1019.11 1019.75 1020.24 1020.59 1020.80 1020.90 1020.93 1020.94 1020.97 1021.04 1021.18 1021.39 1021.66 1021.98 1022.32 1022.66 1023.00 1023.31 1023.61 1023.88 1024.13 1024.37 1024.59 1024.78 1024.94 1025.03 1025.06 1025.01
1016.10 1015.79 1015.48 1015.17 1014.89 1014.67 1014.52 1014.49 1014.61 1014.89 1015.33 1015.93 1016.65 1017.45 1018.27 1019.07 1019.78 1020.37 1020.82 1021.13 1021.31 1021.40 1021.43 1021.44 1021.48 1021.56 1021.71 1021.92 1022.19 1022.49 1022.80 1023.12 1023.42 1023.70 1023.96 1024.20 1024.43 1024.65 1024.85 1025.02 1025.15 1025.23 1025.23 1025.15
1016.41 1016.04 1015.69 1015.37 1015.11 1014.92 1014.83 1014.87 1015.06 1015.41 1015.91 1016.54 1017.29 1018.08 1018.88 1019.64 1020.30 1020.85 1021.26 1021.53 1021.70 1021.78 1021.82 1021.85 1021.91 1022.02 1022.19 1022.41 1022.68 1022.96 1023.26 1023.55 1023.82 1024.08 1024.31 1024.52 1024.73 1024.92 1025.09 1025.24 1025.35 1025.40 1025.37 1025.26
1016.65 1016.25 1015.89 1015.58 1015.35 1015.21 1015.19 1015.30 1015.55 1015.94 1016.48 1017.13 1017.86 1018.63 1019.39 1020.09 1020.70 1021.20 1021.57 1021.82 1021.97 1022.06 1022.12 1022.18 1022.27 1022.41 1022.59 1022.83 1023.10 1023.38 1023.67 1023.94 1024.19 1024.42 1024.62 1024.82 1025.00 1025.16 1025.31 1025.43 1025.51 1025.53 1025.48 1025.34
1016.87 1016.47 1016.12 1015.84 1015.66 1015.58 1015.61 1015.77 1016.07 1016.50 1017.04 1017.68 1018.38 1019.11 1019.81 1020.45 1021.01 1021.46 1021.79 1022.03 1022.18 1022.27 1022.35 1022.44 1022.56 1022.71 1022.92 1023.16 1023.43 1023.70 1023.98 1024.24 1024.47 1024.68 1024.87 1025.04 1025.20 1025.35 1025.48 1025.57 1025.62 1025.62 1025.53 1025.37
1017.09 1016.72 1016.41 1016.18 1016.05 1016.02 1016.11 1016.31 1016.63 1017.06 1017.59 1018.20 1018.86 1019.53 1020.17 1020.75 1021.26 1021.66 1021.97 1022.20 1022.35 1022.46 1022.55 1022.65 1022.78 1022.95 1023.15 1023.39 1023.65 1023.91 1024.17 1024.42 1024.64 1024.83 1025.01 1025.17 1025.32 1025.45 1025.55 1025.63 1025.66 1025.63 1025.53 1025.35
1017.33 1017.01 1016.76 1016.59 1016.52 1016.54 1016.66 1016.88 1017.21 1017.63 1018.13 1018.69 1019.30 1019.91 1020.49 1021.03 1021.49 1021.87 1022.16 1022.37 1022.52 1022.64 1022.73 1022.84 1022.96 1023.12 1023.31 1023.52 1023.76 1024.00 1024.24 1024.46 1024.67 1024.85 1025.02 1025.18 1025.31 1025.43 1025.53 1025.59 1025.60 1025.56 1025.45 1025.27
1017.57 1017.33 1017.16 1017.05 1017.03 1017.09 1017.23 1017.46 1017.78 1018.17 1018.64 1019.15 1019.70 1020.26 1020.80 1021.29 1021.73 1022.09 1022.37 1022.58 1022.73 1022.84 1022.93 1023.02 1023.13 1023.25 1023.41 1023.58 1023.78 1023.98 1024.19 1024.39 1024.58 1024.76 1024.92 1025.07 1025.21 1025.32 1025.41 1025.46 1025.47 1025.43 1025.32 1025.14
1017.81 1017.66 1017.57 1017.53 1017.56 1017.65 1017.80 1018.03 1018.32 1018.68 1019.10 1019.58 1020.08 1020.60 1021.10 1021.57 1021.99 1022.35 1022.63 1022.84 1022.99 1023.09 1023.17 1023.23 1023.30 1023.38 1023.48 1023.61 1023.75 1023.91 1024.08 1024.25 1024.43 1024.59 1024.75 1024.90 1025.04 1025.15 1025.24 1025.29 1025.30 1025.26 1025.15 1024.99
1018.03 1017.98 1017.97 1018.00 1018.06 1018.18 1018.34 1018.55 1018.82 1019.15 1019.54 1019.97 1020.44 1020.93 1021.42 1021.88 1022.29 1022.65 1022.93 1023.15 1023.30 1023.39 1023.44 1023.47 1023.49 1023.52 1023.57 1023.63 1023.72 1023.83 1023.96 1024.11 1024.26 1024.42 1024.58 1024.73 1024.86 1024.98 1025.07 1025.12 1025.13 1025.10 1025.01 1024.86
1018.23 1018.27 1018.34 1018.43 1018.53 1018.67 1018.83 1019.03 1019.28 1019.58 1019.94 1020.35 1020.80 1021.27 1021.75 1022.21 1022.63 1022.99 1023.29 1023.50 1023.65 1023.73 1023.76 1023.75 1023.72 1023.70 1023.68 1023.69 1023.73 1023.79 1023.89 1024.01 1024.15 1024.30 1024.45 1024.60 1024.74 1024.86 1024.95 1025.01 1025.03 1025.00 1024.92 1024.79
1018.40 1018.53 1018.67 1018.82 1018.96 1019.12 1019.28 1019.48 1019.71 1020.00 1020.33 1020.73 1021.16 1021.63 1022.11 1022.57 1023.00 1023.37 1023.67 1023.89 1024.03 1024.09 1024.09 1024.05 1023.98 1023.91 1023.84 1023.80 1023.79 1023.82 1023.89 1023.99 1024.12 1024.27 1024.43 1024.58 1024.73 1024.85 1024.95 1025.01 1025.02 1025.00 1024.92 1024.81
1018.55 1018.77 1018.98 1019.18 1019.36 1019.53 1019.71 1019.90 1020.13 1020.41 1020.73 1021.12 1021.55 1022.01 1022.49 1022.96 1023.39 1023.77 1024.07 1024.28 1024.41 1024.46 1024.43 1024.36 1024.25 1024.14 1024.03 1023.96 1023.92 1023.93 1023.98 1024.07 1024.20 1024.35 1024.52 1024.68 1024.84 1024.96 1025.06 1025.12 1025.14 1025.11 1025.04 1024.93
1018.68 1018.98 1019.26 1019.50 1019.72 1019.92 1020.11 1020.31 1020.54 1020.82 1021.15 1021.53 1021.96 1022.42 1022.90 1023.36 1023.79 1024.16 1024.46 1024.66 1024.77 1024.80 1024.75 1024.65 1024.52 1024.37 1024.25 1024.15 1024.10 1024.10 1024.15 1024.25 1024.38 1024.55 1024.72 1024.90 1025.06 1025.20 1025.30 1025.36 1025.37 1025.35 1025.27 1025.16
1018.81 1019.17 1019.50 1019.79 1020.05 1020.27 1020.48 1020.70 1020.95 1021.23 1021.56 1021.94 1022.37 1022.83 1023.30 1023.76 1024.18 1024.53 1024.81 1025.00 1025.09 1025.09 1025.02 1024.90 1024.75 1024.60 1024.46 1024.36 1024.31 1024.31 1024.37 1024.48 1024.64 1024.82 1025.01 1025.20 1025.38 1025.52 1025.63 1025.69 1025.71 1025.68 1025.60 1025.49
1018.92 1019.34 1019.71 1020.04 1020.33 1020.58 1020.82 1021.06 1021.32 1021.61 1021.95 1022.34 1022.77 1023.22 1023.68 1024.12 1024.52 1024.86 1025.11 1025.27 1025.34 1025.33 1025.25 1025.12 1024.96 1024.81 1024.67 1024.58 1024.54 1024.56 1024.63 1024.77 1024.94 1025.14 1025.35 1025.56 1025.74 1025.90 1026.01 1026.08 1026.10 1026.07 1026.00 1025.88
1019.01 1019.46 1019.87 1020.23 1020.54 1020.82 1021.09 1021.35 1021.63 1021.95 1022.30 1022.70 1023.12 1023.57 1024.01 1024.43 1024.81 1025.12 1025.35 1025.49 1025.54 1025.52 1025.43 1025.29 1025.14 1025.00 1024.88 1024.80 1024.78 1024.82 1024.92 1025.08 1025.27 1025.49 1025.72 1025.94 1026.14 1026.31 1026.44 1026.51 1026.54 1026.51 1026.43 1026.31
1019.04 1019.52 1019.95 1020.33 1020.67 1020.98 1021.27 1021.56 1021.87 1022.21 1022.58 1022.98 1023.41 1023.85 1024.27 1024.68 1025.03 1025.31 1025.52 1025.65 1025.69 1025.66 1025.57 1025.45 1025.32 1025.19 1025.10 1025.05 1025.06 1025.12 1025.25 1025.42 1025.63 1025.87 1026.11 1026.35 1026.56 1026.73 1026.87 1026.95 1026.99 1026.97 1026.90 1026.78
1019.02 1019.51 1019.95 1020.35 1020.71 1021.04 1021.37 1021.69 1022.03 1022.39 1022.77 1023.18 1023.61 1024.04 1024.46 1024.84 1025.17 1025.44 1025.63 1025.75 1025.79 1025.77 1025.70 1025.60 1025.50 1025.41 1025.35 1025.33 1025.37 1025.47 1025.61 1025.81 1026.03 1026.28 1026.53 1026.76 1026.98 1027.17 1027.31 1027.40 1027.44 1027.44 1027.38 1027.27
1018.93 1019.42 1019.87 1020.29 1020.67 1021.04 1021.39 1021.74 1022.11 1022.49 1022.89 1023.31 1023.74 1024.16 1024.56 1024.93 1025.25 1025.50 1025.69 1025.81 1025.86 1025.86 1025.83 1025.77 1025.71 1025.66 1025.64 1025.67 1025.74 1025.86 1026.03 1026.23 1026.47 1026.72 1026.96 1027.20 1027.42 1027.60 1027.75 1027.85 1027.90 1027.91 1027.86 1027.77
1018.80 1019.29 1019.75 1020.18 1020.59 1020.98 1021.36 1021.74 1022.13 1022.54 1022.96 1023.38 1023.81 1024.22 1024.61 1024.96 1025.27 1025.52 1025.71 1025.84 1025.92 1025.95 1025.96 1025.95 1025.94 1025.95 1025.98 1026.05 1026.16 1026.31 1026.49 1026.71 1026.94 1027.18 1027.43 1027.65 1027.86 1028.04 1028.18 1028.29 1028.35 1028.37 1028.34 1028.26
1018.65 1019.14 1019.61 1020.06 1020.49 1020.91 1021.31 1021.72 1022.14 1022.56 1022.98 1023.41 1023.83 1024.23 1024.61 1024.95 1025.24 1025.49 1025.69 1025.84 1025.95 1026.03 1026.09 1026.14 1026.19 1026.25 1026.34 1026.45 1026.60 1026.78 1026.98 1027.20 1027.43 1027.66 1027.89 1028.10 1028.30 1028.47 1028.60 1028.71 1028.77 1028.80 1028.79 1028.73
Thickness
5632 5640 5645 5643 5646 5654 5652 5649 5642 5641 5644 5647 5648 5645 5641 5638 5635 5633 5630 5627 5624 5620 5617 5613 5610 5607 5604 5599 5593 5587 5581 5574 5567 5560 5552 5546 5539 5533 5527 5521 5514 5507 5501 5494
5620 5628 5630 5629 5632 5638 5642 5643 5639 5638 5635 5639 5637 5634 5629 5625 5623 5619 5616 5611 5607 5604 5601 5597 5594 5591 5587 5582 5576 5571 5564 5556 5550 5543 5536 5530 5523 5517 5510 5503 5496 5490 5484 5479
5597 5608 5610 5604 5613 5618 5621 5625 5631 5628 5629 5628 5623 5620 5616 5614 5612 5608 5602 5595 5590 5585 5583 5580 5577 5574 5570 5565 5559 5554 5547 5540 5533 5527 5520 5514 5508 5500 5493 5486 5480 5474 5469 5464
5581 5587 5578 5596 5610 5611 5609 5611 5617 5619 5617 5615 5609 5600 5595 5594 5596 5593 5587 5579 5573 5569 5566 5562 5559 5556 5552 5547 5542 5536 5529 5523 5516 5510 5504 5497 5490 5483 5476 5470 5464 5459 5454 5449
5567 5572 5578 5589 5596 5597 5596 5595 5602 5603 5600 5596 5593 5589 5582 5576 5577 5573 5567 5561 5557 5553 5550 5546 5542 5538 5534 5529 5523 5518 5512 5506 5500 5494 5488 5480 5473 5466 5460 5455 5450 5445 5439 5435
5560 5565 5564 5577 5587 5593 5589 5581 5590 5590 5587 5583 5582 5576 5569 5559 5556 5552 5548 5544 5540 5537 5533 5529 5524 5521 5516 5511 5506 5500 5495 5490 5484 5478 5471 5463 5457 5451 5445 5440 5435 5430 5425 5420
5550 5554 5560 5571 5577 5582 5571 5572 5581 5578 5575 5572 5568 5560 5550 5543 5539 5535 5532 5528 5525 5521 5517 5513 5509 5505 5500 5495 5489 5484 5479 5473 5467 5460 5454 5447 5441 5436 5431 5426 5421 5416 5411 5407
5541 5546 5550 5562 5567 5566 5565 5569 5570 5567 5563 5557 5548 5541 5534 5529 5524 5521 5517 5514 5510 5507 5503 5498 5495 5491 5485 5479 5474 5469 5464 5458 5451 5445 5440 5433 5427 5422 5417 5412 5407 5402 5398 5395
5538 5539 5547 5550 5554 5557 5558 5559 5559 5554 5548 5542 5535 5529 5522 5517 5513 5509 5505 5502 5498 5495 5491 5486 5481 5477 5471 5465 5460 5455 5449 5442 5437 5431 5425 5420 5415 5409 5404 5398 5394 5390 5386 5383
5537 5541 5544 5546 5548 5549 5550 5550 5548 5543 5536 5532 5527 5519 5512 5507 5502 5498 5495 5491 5487 5483 5478 5473 5469 5465 5460 5455 5449 5443 5436 5429 5424 5418 5412 5407 5402 5397 5392 5388 5384 5380 5377 5375
5534 5537 5538 5540 5537 5536 5538 5536 5533 5529 5526 5521 5517 5509 5504 5497 5492 5488 5484 5479 5475 5470 5466 5461 5458 5455 5451 5445 5439 5432 5425 5418 5412 5406 5401 5396 5392 5387 5384 5380 5376 5373 5371 5368
5526 5526 5525 5527 5525 5527 5527 5525 5521 5518 5513 5509 5506 5500 5494 5488 5483 5478 5473 5469 5464 5460 5457 5453 5450 5446 5441 5436 5430 5422 5414 5407 5401 5396 5392 5388 5384 5380 5377 5374 5371 5368 5365 5363
5518 5518 5516 5517 5517 5517 5516 5514 5511 5508 5505 5500 5495 5491 5486 5479 5474 5470 5466 5462 5458 5454 5450 5446 5441 5437 5431 5426 5419 5412 5405 5399 5394 5389 5385 5381 5377 5374 5371 5368 5366 5363 5361 5360
5515 5513 5514 5512 5510 5510 5509 5507 5504 5500 5496 5493 5488 5484 5479 5474 5469 5466 5462 5458 5453 5449 5444 5439 5434 5428 5423 5417 5411 5404 5398 5393 5388 5384 5380 5376 5373 5370 5366 5363 5361 5359 5358 5358
5512 5511 5509 5507 5505 5504 5503 5501 5497 5493 5489 5485 5482 5479 5475 5470 5466 5462 5458 5454 5449 5444 5439 5434 5428 5422 5417 5411 5404 5398 5393 5388 5383 5379 5375 5372 5369 5366 5363 5361 5359 5357 5357 5358
5509 5508 5506 5505 5502 5500 5498 5496 5492 5488 5484 5481 5478 5475 5471 5467 5463 5459 5455 5451 5446 5440 5435 5429 5423 5418 5412 5406 5400 5394 5389 5385 5380 5376 5372 5369 5367 5364 5362 5360 5358 5357 5357 5357
5507 5504 5503 5502 5499 5496 5493 5491 5488 5484 5481 5478 5474 5471 5467 5464 5459 5455 5451 5447 5442 5436 5430 5424 5419 5414 5409 5403 5396 5391 5386 5382 5379 5374 5371 5368 5366 5364 5362 5360 5359 5358 5358 5359
5507 5504 5501 5499 5495 5492 5490 5487 5484 5482 5479 5476 5473 5470 5466 5462 5457 5452 5448 5443 5438 5432 5426 5421 5416 5411 5406 5400 5394 5388 5384 5379 5376 5373 5370 5368 5366 5364 5363 5362 5361 5361 5361 5363
5504 5502 5499 5496 5493 5490 5487 5485 5483 5481 5478 5475 5472 5468 5464 5460 5456 5451 5446 5442 5437 5431 5425 5420 5416 5410 5404 5399 5394 5388 5384 5380 5376 5373 5371 5369 5367 5366 5365 5364 5364 5364 5365 5367
5502 5500 5498 5496 5493 5491 5488 5486 5484 5480 5477 5475 5471 5467 5462 5458 5455 5450 5446 5440 5434 5430 5426 5422 5417 5411 5405 5400 5395 5390 5386 5382 5378 5375 5373 5371 5370 5369 5368 5368 5368 5368 5369 5370
5501 5500 5498 5496 5494 5492 5490 5487 5484 5479 5477 5475 5472 5467 5462 5458 5454 5450 5446 5441 5436 5433 5429 5425 5419 5414 5408 5403 5398 5393 5389 5385 5381 5379 5377 5375 5373 5373 5372 5372 5371 5371 5372 5372
5500 5499 5497 5495 5493 5491 5489 5487 5484 5481 5477 5474 5471 5467 5462 5458 5454 5450 5447 5442 5439 5436 5432 5428 5423 5418 5412 5407 5402 5397 5393 5389 5385 5383 5381 5379 5378 5376 5375 5374 5373 5373 5373 5374
5499 5499 5497 5496 5493 5491 5489 5486 5484 5482 5478 5475 5472 5468 5464 5460 5456 5453 5449 5445 5442 5439 5435 5431 5427 5422 5416 5411 5406 5401 5397 5393 5390 5387 5384 5382 5381 5379 5378 5376 5375 5374 5374 5375
5499 5498 5497 5495 5493 5490 5487 5485 5483 5482 5480 5477 5475 5471 5466 5461 5457 5454 5452 5449 5446 5443 5438 5435 5431 5426 5421 5415 5410 5405 5401 5397 5393 5390 5387 5384 5382 5380 5379 5377 5376 5376 5376 5376
5499 5497 5495 5493 5491 5489 5486 5483 5480 5479 5478 5475 5473 5470 5468 5466 5463 5458 5455 5452 5449 5446 5442 5439 5435 5431 5426 5420 5415 5410 5406 5401 5396 5392 5388 5385 5382 5381 5379 5378 5378 5377 5377 5377
5497 5496 5496 5494 5492 5489 5486 5482 5478 5477 5476 5474 5471 5470 5468 5466 5464 5460 5458 5455 5452 5449 5446 5443 5440 5436 5431 5426 5421 5416 5411 5406 5401 5396 5391 5386 5383 5381 5380 5379 5379 5378 5378 5378
5496 5494 5492 5490 5489 5488 5486 5483 5479 5477 5477 5476 5474 5471 5469 5467 5465 5463 5460 5457 5455 5452 5449 5447 5444 5440 5436 5432 5427 5422 5417 5412 5406 5401 5395 5390 5386 5383 5382 5381 5380 5379 5379 5380